User: anonymous   Login
Location: Caltech
(34.1382°N, 118.1253°W)
Time: 13:04:12
(UTC-07:00)
Language:

Spot 4 Rocket - Orbit

View from above orbital plane
View from above orbital plane
View from above satellite
View from above satellite

Ground track
Ground track

The orbit data is extracted from the following two-line orbital elements,

1 25261U 98017B   16206.92188041 +.00000063 +00000-0 +38631-4 0  9993
2 25261 098.5030 153.0387 0003314 003.2048 356.9157 14.33493682957873
Epoch (UTC): 24 July 2016 22:07:30
Eccentricity: 0.0003314
inclination: 98.5030°
perigee height: 778 km
apogee height: 782 km
right ascension of ascending node: 153.0387°
argument of perigee: 3.2048°
revolutions per day: 14.33493682
mean anomaly at epoch: 356.9157°
orbit number at epoch: 95787

The dashed part of the orbit path shows where the satellite is in the earth's shadow,  

DLR